Location: Unspecified
(41.5516°N, 88.1098°W)
Time: 21:10:02
(UTC-05:00)

Cosmos 2058 - Visible Passes

Search period start: 23 March 2017 00:00
Search period end: 02 April 2017 00:00
Orbit: 564 x 585 km, 82.5° (Epoch: 22 March)

Date Brightness Start Highest point End Pass type
(mag) Time Alt. Az. Time Alt. Az. Time Alt. Az.
23 Mar 5.4 21:41:55 10° N 21:42:34 14° NNE 21:42:34 14° NNE visible
24 Mar 5.2 21:45:12 10° N 21:46:19 17° N 21:46:19 17° N visible
25 Mar 4.9 21:48:33 10° N 21:50:06 22° N 21:50:06 22° N visible
26 Mar 4.7 21:51:58 10° N 21:53:54 27° N 21:53:54 27° N visible
27 Mar 5.1 20:21:13 10° NE 20:21:29 10° ENE 20:21:29 10° ENE visible
27 Mar 4.6 21:55:26 10° NNW 21:57:44 31° NNW 21:57:44 31° NNW visible
28 Mar 4.8 20:23:29 10° NE 20:25:21 14° ENE 20:25:21 14° ENE visible
28 Mar 4.5 21:58:58 10° NNW 22:01:37 33° NW 22:01:37 33° NW visible
29 Mar 4.4 20:26:20 10° NNE 20:29:15 18° ENE 20:29:15 18° ENE visible
29 Mar 4.6 22:02:33 10° NNW 22:05:31 31° WNW 22:05:31 31° WNW visible
30 Mar 4.0 20:29:22 10° NNE 20:32:46 24° ENE 20:33:13 23° E visible
30 Mar 4.9 22:06:14 10° NW 22:09:29 25° W 22:09:29 25° W visible
31 Mar 3.7 20:32:32 10° NNE 20:36:15 31° ENE 20:37:13 28° ESE visible
31 Mar 5.2 22:10:01 10° NW 22:12:57 19° W 22:13:29 19° W visible
01 Apr 3.3 20:35:47 10° N 20:39:44 42° ENE 20:41:16 29° SE visible
01 Apr 5.6 22:14:01 10° NW 22:16:16 14° W 22:17:33 13° WSW visible
